Find Starlink 38055

NORAD ID: 69704 Int'l Des: 2026-147 Owner: SPXS Country: US Constellation: starlink operational
LEOCIRCULARRETROGRADE

現在のビュー

3D地球を読み込み中...

About Starlink 38055

Starlink 38055 (NORAD 69704) is a starlink constellation satellite (v2 mini) launched Jun 28, 2026 by SPXS of US. It operates in LEO, CIRCULAR, RETROGRADE orbit with a mass of 575.00 kg.

次回通過

Passes for default location (London). Set your location on the main map for personalized predictions.

高度履歴

Loading altitude history...

軌道要素

1 69704U 26147A 26236.38745905 .00016909 00000-0 52438-3 0 9996
2 69704 97.2852 273.0599 0000921 103.1296 257.0049 15.33478106 10073
Epoch: Aug 24, 2026 • Age: 14 hours

現在のステータス

高度 493.6 km
遠地点 / 近地点 N/A
速度 7.62 km/s
衛星直下点 -76.76°S, 103.39°E
打ち上げ日 Jun 28, 2026
運用期間 0.1 years
タイプ internet

技術仕様

分類 Payload
質量 575.00 kg
乾燥質量 530.00 kg
総質量 575.00 kg
長さ 0.30 m
直径 4.10 m
スパン 29.00 m
形状 Box + pan
製造者 SPXS
バスタイプ Starlink V2MO
フェーズステータス In Orbit
所有者/国 SPXS/US

Most Searched